Location: Fredericksburg
(30.2750°N, 98.8720°W)
Time: 02:01:48
(UTC-06:00)

Daily predictions for brighter satellites

Satellite Brightness Start Highest point End
(mag) Time Altitude Azimuth Time Altitude Azimuth Time Altitude Azimuth
CZ-3 R/B 4.2 02:20:41 10° W 03:30:21 68° S 03:41:04 10° ESE
CZ-3C R/B 4.4 04:16:32 45° SSW 04:19:00 47° S 05:35:40 10° ESE
ATLAS 3B CENTAUR R/B 4.3 04:46:50 17° SSE 04:48:19 19° SE 04:54:02 10° E
Cosmos 2333 Rocket 4.1 04:59:45 18° S 04:59:45 18° S 05:01:13 10° S
IUS-9 SRM-1 3.9 05:02:39 49° SSE 05:02:39 49° SSE 05:05:24 10° ESE
DELTA 2 R/B (1) 4.2 05:04:53 50° ENE 05:04:53 50° ENE 05:08:56 10° ENE
Cosmos 2233 Rocket 3.9 05:15:35 10° S 05:21:48 84° E 05:28:06 10° N
CZ-3 Stage 3 1.7 05:28:59 85° NE 05:28:59 85° NE 05:39:06 10° E
Cosmos 1500 Rocket 4.3 05:28:40 31° NNE 05:30:32 53° E 05:34:54 10° SSE
Cosmos 2237 Rocket 3.3 05:38:03 28° SSW 05:38:03 28° SSW 05:41:06 10° S
OAO 2 Rocket 3.5 05:38:34 53° N 05:38:52 54° N 05:43:41 10° E
Thor Agena Rocket 3.5 05:36:30 10° S 05:41:41 64° WSW 05:42:30 56° WNW
SL-16 R/B 2.1 05:39:13 35° NNW 05:41:43 89° ENE 05:47:23 10° SSE
ISS -1.5 05:41:57 27° NE 05:41:57 27° NE 05:44:35 10° E
Cosmos 2346 Rocket 4.4 05:39:10 10° N 05:45:17 83° E 05:51:19 10° S
Cosmos 1816 Rocket 4.4 05:43:56 13° NNW 05:49:26 62° W 05:55:32 10° S
SWIFT 4.3 05:52:32 17° SSW 05:53:19 18° S 05:56:12 10° SE
Meteor 1-28 Rocket 4.5 05:53:00 10° SE 05:56:31 40° ENE 06:00:03 10° N
Gbstr 26 Del rocket 4.1 05:52:04 10° SSW 05:56:50 57° SE 06:02:49 10° NE
Delta 198 4.3 05:56:27 27° SSW 05:57:19 31° S 06:00:42 10° ESE
Cosmos 1271 Rocket 2.5 05:55:20 10° SSW 05:59:09 70° W 06:02:56 10° N
Cosmos 2344 4.4 05:52:04 10° S 05:59:37 53° ESE 06:07:17 10° NE
SKYMED 2 3.5 05:56:06 10° SSE 06:00:26 85° ENE 06:04:45 10° N
Meteor 1-16 Rocket 4.1 05:57:54 10° SSW 06:03:15 58° W 06:08:31 10° N
BREEZE-M DEB (TANK) 3.7 05:53:31 16° NW 06:04:51 83° NE 06:08:48 10° SE
USA 229 DEB 3.9 06:00:49 25° NW 06:05:02 56° WSW 06:12:05 10° S
USA 229 3.9 06:00:52 25° NW 06:05:09 57° WSW 06:12:12 10° S
Atlas 2A Centaur Rocket 2.7 06:03:22 21° SW 06:05:48 38° S 06:08:06 10° ESE
Cosmos 2058 3.3 06:02:18 10° N 06:06:24 64° E 06:10:30 10° SSE
Meteor 2-12 Rocket 4.5 06:00:37 10° S 06:06:44 85° E 06:12:55 10° N
Cosmos 2221 2.4 06:07:43 10° S 06:12:03 79° W 06:16:23 10° N
Meteor 1-11 4.3 06:06:54 10° N 06:12:44 90° SW 06:18:30 10° S
Cosmos 1464 Rocket 3.9 06:08:55 10° S 06:15:15 81° W 06:21:35 10° N
Milstar 3 Cent rocket 3.7 06:06:17 10° SW 06:15:23 43° SSE 06:20:35 10° E
Cosmos 1340 Rocket 2.8 06:11:38 10° N 06:15:35 81° E 06:19:33 10° S
SL-14 R/B 3.4 06:17:06 12° NNW 06:20:43 53° W 06:24:39 10° S
Cosmos 1777 Rocket 4.5 06:20:34 10° SW 06:25:18 35° WNW 06:30:04 10° N
Tiangong 2 1.9 06:25:45 29° NW 06:26:21 31° NNW 06:29:12 10° NE
Cosmos 1356 Rocket 4.1 06:25:07 10° N 06:29:11 58° E 06:33:19 10° SSE
SMAP 4.4 06:24:53 10° NNE 06:29:19 43° E 06:33:43 10° S
CSL-04 DEB 4.4 06:25:27 10° N 06:29:48 77° WNW 06:34:02 10° SSW
ERBS 2.4 06:33:13 15° NNW 06:36:00 77° NE 06:39:24 10° SE
CSL-04 Debris 4.1 06:32:14 10° N 06:37:40 69° WNW 06:43:04 10° SSW
Cosmos 2263 Rocket 2.3 06:34:16 10° SSW 06:39:54 84° ESE 06:45:37 10° NNE
Cosmos 2151 3.7 06:36:42 10° NNW 06:40:24 30° W 06:44:08 10° SSW
Cosmos 1603 3.7 06:40:20 10° NNW 06:45:57 72° WSW 06:51:35 10° S
Cosmos 1908 3.2 06:42:15 10° S 06:46:03 89° W 06:49:54 10° N
IRS-1A Rocket 4.3 06:42:31 10° N 06:48:22 74° WNW 06:54:06 10° SSW
COSMO-SKYMED 1 3.7 06:45:04 10° SSW 06:48:32 24° W 06:52:02 10° NW
DELTA 2 R/B (1) 4.3 06:45:40 13° WNW 06:50:12 37° NNW 06:55:20 10° NE
SJ-12 3.8 06:48:54 10° N 06:52:56 70° WNW 06:56:58 10° SSW
NOSS 3-1 (C) 4.3 06:51:08 10° NW 06:58:56 62° WSW 07:07:14 10° SSE
Cosmos 1726 4.2 06:56:00 10° SSE 06:59:16 31° E 07:02:33 10° NNE
CZ-2C R/B 2.2 06:55:36 10° N 07:00:08 67° WNW 07:04:40 10° SSW
Cosmos 1805 Rocket 3.9 06:56:41 10° NNW 07:00:52 45° W 07:05:01 10° SSW
Cosmos 2228 Rocket 3.0 06:56:47 10° S 07:01:13 82° W 07:05:39 10° N
CZ-4 R/B 1.5 06:57:25 10° N 07:01:24 54° WNW 07:05:27 10° SSW
IDEFIX/ARIANE 42P 2.6 06:57:41 10° N 07:02:55 67° WNW 07:08:07 10° SSW
CSL-04 Rocket 4.3 06:58:51 10° N 07:03:26 31° WNW 07:08:00 10° SW
Genesis I 3.6 07:00:41 10° NW 07:04:24 43° WSW 07:08:06 10° S
Ariane Rocket 4.1 07:01:48 10° NNW 07:05:44 23° WNW 07:09:40 10° WSW
Cosmos 1300 4.3 07:02:50 10° SSE 07:06:24 40° E 07:10:00 10° NNE
GPS 2-05 Rocket1 3.7 07:03:26 10° WNW 07:06:25 34° N 07:09:30 10° ENE
Cosmos 923 Rocket 4.2 07:02:23 10° NNW 07:07:29 54° WSW 07:12:35 10° S
Meteor 2-2 Rocket 4.5 07:04:10 10° S 07:10:03 83° E 07:15:51 10° N
ASTRO E2 4.4 07:07:16 10° SW 07:10:53 33° SSE 07:14:31 10° E
Cosmos 1634 Rocket 4.3 07:05:24 10° S 07:11:41 79° E 07:17:58 10° N
ATLAS 2A CENTAUR R/B 3.9 07:11:00 10° W 07:23:58 40° SSW 07:27:37 10° SE
